Weather in Sinquerim

India     15°32′45″N   73°47′08″E
temp.,
°C
wind,
m/s
gust,
m/s
humid.,
%
clouds,
%
prec.,
mm/h
press.,
hPa
HPBL,
m
6 march, sat
sat623:30+26n34820 0.0 1014287
02:30+24ene22880 0.0 1012125
05:30+24e22880 0.0 1012112
08:30+25e33772 0.0 1015163
11:30+28sw32681 0.0 1015411
14:30+28wnw78750 0.0 1011339
17:30+28nw68720 0.0 1010572
20:30+27nw57770 0.0 1012492
7 march, sun
sun723:30+26nnw45810 0.0 1013455
02:30+24ne22830 0.0 1011214
05:30+23ene22860 0.0 1010121
08:30+24ne33781 0.0 1014251
11:30+27w44641 0.0 1013394
14:30+28w67650 0.0 1009347
17:30+29nw79610 0.0 1008511
20:30+28nnw711660 0.0 1011439
8 march, mon
mon823:30+27n69580 0.0 1011347
02:30+25n46560 0.0 1009281
05:30+25nne45540 0.0 1009280
08:30+25ese33530 0.0 1013203
11:30+28wsw43500 0.0 1012269
14:30+29wnw77530 0.0 1009249
17:30+29nw79600 0.0 1007384
20:30+28nnw69670 0.0 1011301
9 march, tue
tue923:30+26n56590 0.0 1011261
02:30+25nne22570 0.0 1010167
05:30+24se22630 0.0 1010138
08:30+27ese22630 0.0 1013253
11:30+28sw33610 0.0 1013439
14:30+29w66620 0.0 1009378
17:30+28nw78720 0.0 1009515
20:30+27nnw56750 0.0 1011344
10 march, wed
wed1023:30+26n45750 0.0 1011276
02:30+24n33750 0.0 1010179
05:30+24e22790 0.0 1010131
08:30+25ese22740 0.0 1013221
11:30+27wsw32660 0.0 1013307
14:30+29wnw67620 0.0 1009350
17:30+29nw78670 0.0 1008424
20:30+28nnw68730 0.0 1010385